Location: Pinon Hills
(34.4429°N, 117.6403°W)
Time: 09:18:33
(UTC-07:00)

Daily predictions for brighter satellites

Satellite Brightness Start Highest point End
(mag) Time Altitude Azimuth Time Altitude Azimuth Time Altitude Azimuth
COSMOS 2406 3.5 19:21:35 10° N 19:27:08 48° ENE 19:32:36 10° SE
Lacrosse 5 2.2 19:23:24 10° SSW 19:28:12 44° ESE 19:33:00 10° NE
Cosmos 2228 3.3 19:24:36 10° SSW 19:28:49 73° W 19:33:04 10° N
Cosmos 2298 Rocket 4.0 19:26:56 10° S 19:32:12 72° ESE 19:37:30 10° NNE
Delta 2 Rocket 3.6 19:27:57 10° W 19:32:50 75° N 19:37:05 10° E
SeaSat 1 2.6 19:32:07 10° SE 19:36:54 55° ENE 19:41:44 10° NNW
Cosmos 1844 3.7 19:31:52 10° SSW 19:37:34 71° ESE 19:43:21 10° NNE
FREGAT/IRIS 2.6 19:34:56 10° SSE 19:37:59 70° ENE 19:41:01 10° N
Aureole 1 Rocket 4.5 19:34:27 10° NW 19:38:09 35° W 19:41:12 10° SSW
Cosmos 405 3.1 19:36:13 10° S 19:39:43 80° W 19:43:15 10° N
NOAA 12 4.3 19:37:30 10° S 19:42:48 78° WSW 19:48:08 10° NNW
CZ-3B DEB 3.6 19:31:14 10° SW 19:45:24 80° NW 19:51:39 10° NE
CZ-2D R/B 4.4 19:43:07 10° SE 19:46:13 24° ENE 19:49:21 10° NNE
Cosmos 2123 Rocket 4.5 19:42:42 10° N 19:48:34 39° ENE 19:54:22 10° SE
Cosmos 1805 4.4 19:49:00 10° SE 19:52:00 22° E 19:55:01 10° NE
Helios 1A 4.4 19:50:45 14° ESE 19:52:55 20° ENE 19:55:56 10° NNE
Helios 1B rocket 3.5 19:50:54 10° NE 19:54:18 24° E 19:57:40 10° SSE
Cosmos 1437 Rocket 2.9 19:51:00 10° S 19:54:57 80° W 19:59:01 10° N
SJ-6B 2.9 19:52:19 10° S 19:56:02 72° WSW 19:59:46 10° NNW
Lacrosse 4 Rocket 2.8 19:56:34 10° SW 20:00:25 41° WNW 20:04:15 10° N
Meteor 1-22 Rocket 4.2 19:55:29 10° S 20:01:11 76° E 20:07:08 10° NNE
Resurs 1-3 3.7 20:00:51 10° SSE 20:05:05 52° ENE 20:09:21 10° N
Yuri Rocket 3.8 20:03:30 10° WSW 20:07:22 36° S 20:09:37 21° SE
GPS 2-05 Rocket1 4.1 20:11:03 10° SSW 20:14:04 25° SSE 20:14:33 25° SE
Cosmos 1758 3.8 20:12:31 10° SSE 20:16:10 37° E 20:19:51 10° NNE
Spot 2 Rocket 3.4 20:12:43 10° SSE 20:17:48 81° ENE 20:22:55 10° N
Tiangong 1 2.3 20:17:12 10° NW 20:19:46 26° NNE 20:20:14 25° NE
Cosmos 2344 3.9 20:12:39 10° SW 20:20:18 69° WNW 20:28:36 10° NNE
SAR-Lupe-4 3.9 20:19:40 34° ESE 20:20:33 42° ENE 20:23:57 10° N
Cosmos 1844 Rocket 4.4 20:15:44 10° SW 20:20:52 35° WNW 20:26:00 10° N
In-Cosmos 22 4.1 20:17:50 10° N 20:23:05 59° E 20:27:42 13° SSE
Cosmos 1378 4.0 20:20:44 10° NNW 20:24:23 50° W 20:27:59 10° S
Cosmos 1939 Rocket 4.4 20:25:22 21° NE 20:25:22 21° NE 20:27:51 10° NNE
OAO 1 4.5 20:20:39 10° W 20:26:09 83° N 20:28:56 30° E
USA 186 3.5 20:28:05 14° N 20:28:05 14° N 20:28:31 10° N
Cosmos 1953 2.5 20:22:30 10° SSE 20:26:24 46° E 20:30:18 10° NNE
Cosmos 2278 Rocket 2.4 20:24:35 10° SSW 20:30:15 74° WNW 20:35:56 10° NNE
H-2A R/B 3.4 20:27:01 10° S 20:30:48 56° W 20:34:39 10° NNW
USA 215 3.2 20:26:58 10° NE 20:33:32 89° SE 20:40:04 10° SW
Cosmos 1833 Rocket 3.9 20:29:57 10° N 20:34:18 22° ENE 20:34:24 22° ENE
Okean 3 Rocket 3.4 20:30:23 10° N 20:34:46 69° E 20:36:56 29° SSE
Envisat 3.4 20:34:42 37° ESE 20:35:45 41° ENE 20:40:31 10° N
SAR-Lupe-1 3.9 20:39:57 68° ENE 20:39:58 68° ENE 20:43:32 10° N
Cosmos 1125 Rocket 3.3 20:36:41 10° S 20:41:49 67° ESE 20:46:59 10° NNE
Cosmos 2297 3.6 20:37:02 10° S 20:42:38 61° ESE 20:48:17 10° NNE
Meteor 1-4 Rocket 2.9 20:48:52 51° N 20:48:52 51° N 20:51:33 10° N
Cosmos 1544 3.7 20:46:32 10° SSW 20:50:05 56° W 20:53:41 10° N
GP-B 2.9 20:52:13 63° SSE 20:52:51 78° E 20:57:18 10° N
Resurs 01 Rocket 3.3 20:49:58 10° SSW 20:53:56 33° W 20:57:56 10° NNW
ATLAS 5 CENTAUR R/B 4.0 20:49:57 10° S 20:50:05 11° S 20:50:05 11° S
SL-27 R/B 3.8 20:53:45 10° NNW 20:57:07 39° WSW 20:58:00 33° SW
RESURS DK-1 2.8 20:53:20 10° NNW 20:57:25 59° WSW 20:58:05 51° SSW
Meteor 1-29 3.7 20:56:39 10° N 21:00:03 52° WNW 21:00:10 52° W
ERS-1 Rocket 4.0 21:03:32 33° NE 21:03:32 33° NE 21:06:47 10° N
Cosmos 2082 Rocket 2.7 20:58:35 10° N 21:03:31 43° NE 21:03:31 43° NE
Cosmos 1818 3.8 21:01:43 10° NNW 21:06:41 52° NE 21:06:41 52° NE
Lacrosse 5 3.8 21:07:00 10° W 21:11:18 27° NW 21:15:36 10° NNE
Cosmos 1766 Rocket 4.3 21:09:07 10° N 21:12:21 47° N 21:12:21 47° N
Cosmos 1076 Rocket 4.0 21:09:44 10° NNW 21:13:29 58° WNW 21:13:29 58° WNW
Delta 2 Rocket 4.3 21:11:03 10° W 21:14:18 44° W 21:14:18 44° W
Cosmos 2100 Rocket 3.9 21:13:07 31° S 21:16:23 86° E 21:22:46 10° N
Cosmos 1269 Rocket 4.3 21:16:41 10° NNW 21:21:03 60° N 21:21:03 60° N
Cosmos 1802 Rocket 4.0 21:34:35 74° N 21:34:35 74° N 21:40:08 10° N
Cosmos 2061 Rocket 4.2 21:41:04 58° SW 21:42:10 69° W 21:48:35 10° N
Timation 2 Rocket 4.4 21:44:57 10° NNW 21:49:45 55° NNW 21:49:45 55° NNW
Cosmos 1833 Rocket 4.4 22:13:05 10° NW 22:16:08 30° NW 22:16:08 30° NW
